Content
SEND FEEDBACK

Daily
Averages
Monthly
Summary
United States of America

ACHANG BAY, GUAM


Home > North America > United States > Guam
Elevation: 30 feet     Latitude: 13 16N     Longitude: 144 45E

WEATHER
 
SELECT A DAY
Number of Records: 351,620;   Date Range: 1/1/95 - 10/20/14
 
SHARE

PRINT THIS DATA

[ ← Previous Day ]
WEATHER ALMANAC - JULY 15, 2013
[ Next Day → ]
[ °C ]   °F
We're sorry. There is no daily almanac available for Achang Bay, Guam on July 15, 2013.
WEATHER BY HOUR - JULY 15, 2013
[ °C ]   °F
Local TimeTemperatureDewpointHumidityBarometerVisibilityWind DirectionWind SpeedGust SpeedPrecipitationEventsConditions
12:05 AM78.8 °F69.8 °F74 %29.81 in10.0 miSSE (150°)6.9 mphMostly Cloudy
12:27 AM78.8 °F71.6 °F78 %29.81 in10.0 miESE (110°)4.6 mphMostly Cloudy
12:55 AM79.3 °F70.5 °F74 %29.80 in10.0 miENE (70°)5.8 mphMostly Cloudy
1:55 AM78.6 °F70.3 °F76 %29.78 in10.0 miENE (60°)3.5 mphClear
2:17 AM78.8 °F71.6 °F78 %29.78 in10.0 miEast (80°)4.6 mphMostly Cloudy
2:22 AM78.8 °F71.6 °F78 %29.78 in10.0 miEast (80°)5.8 mphMostly Cloudy
2:55 AM79.3 °F71.6 °F77 %29.78 in10.0 miENE (60°)6.9 mphScattered Clouds
3:22 AM78.8 °F71.6 °F78 %29.77 in10.0 miEast (90°)6.9 mphRainLight Rain
3:30 AM78.8 °F69.8 °F74 %29.78 in8.0 miESE (110°)13.8 mphRainLight Rain
3:33 AM78.8 °F69.8 °F74 %29.78 in8.0 miESE (110°)11.5 mphRainLight Rain
3:35 AM78.8 °F71.6 °F78 %29.78 in7.0 miESE (110°)11.5 mphRainLight Rain
3:36 AM78.8 °F69.8 °F74 %29.78 in6.0 miESE (110°)12.7 mphRainLight Rain
3:37 AM78.8 °F69.8 °F74 %29.78 in6.0 miESE (110°)12.7 mphRainRain
3:55 AM77.7 °F62.6 °F60 %29.78 in10.0 miESE (110°)6.9 mph0.02 inRainLight Rain
4:06 AM77.0 °F62.6 °F61 %29.79 in10.0 miENE (60°)5.8 mphMostly Cloudy
4:55 AM77.0 °F73.4 °F89 %29.77 in10.0 miNNE (30°)4.6 mph0.00 inClear
5:55 AM77.4 °F71.6 °F82 %29.78 in10.0 miENE (60°)4.6 mphPartly Cloudy
6:55 AM78.8 °F70.3 °F75 %29.80 in10.0 miNE (50°)3.5 mphPartly Cloudy
7:55 AM81.5 °F74.1 °F78 %29.80 in10.0 miNE (40°)8.1 mphPartly Cloudy
8:11 AM82.4 °F75.2 °F79 %29.81 in10.0 miNE (40°)8.1 mphMostly Cloudy
8:22 AM82.4 °F75.2 °F79 %29.81 in10.0 miENE (70°)6.9 mphScattered Clouds
8:24 AM82.4 °F75.2 °F79 %29.81 in10.0 miENE (60°)8.1 mphMostly Cloudy
8:53 AM82.4 °F75.2 °F79 %29.81 in10.0 miEast (80°)9.2 mphMostly Cloudy
8:55 AM83.5 °F71.6 °F67 %29.80 in10.0 miEast (80°)9.2 mphMostly Cloudy
9:02 AM84.2 °F75.2 °F74 %29.81 in10.0 miEast (80°)9.2 mphScattered Clouds
9:26 AM84.2 °F75.2 °F74 %29.81 in10.0 miENE (70°)9.2 mphMostly Cloudy
9:28 AM84.2 °F75.2 °F74 %29.81 in10.0 miENE (70°)9.2 mphScattered Clouds
9:29 AM84.2 °F75.2 °F74 %29.81 in10.0 miENE (60°)10.4 mphMostly Cloudy
9:31 AM84.2 °F75.2 °F74 %29.81 in10.0 miENE (70°)10.4 mphMostly Cloudy
9:36 AM84.2 °F77.0 °F79 %29.81 in10.0 miENE (70°)11.5 mphMostly Cloudy
9:55 AM84.6 °F77.0 °F78 %29.81 in10.0 miEast (90°)10.4 mphScattered Clouds
10:55 AM86.2 °F70.9 °F60 %29.80 in10.0 miEast (90°)11.5 mphScattered Clouds
11:21 AM86.0 °F71.6 °F62 %29.80 in10.0 miEast (90°)9.2 mphMostly Cloudy
11:23 AM86.0 °F71.6 °F62 %29.80 in10.0 miEast (90°)9.2 mphScattered Clouds
11:43 AM84.2 °F69.8 °F62 %29.80 in10.0 miEast (100°)9.2 mphMostly Cloudy
11:46 AM84.2 °F75.2 °F74 %29.80 in10.0 miEast (80°)9.2 mphScattered Clouds
11:55 AM85.1 °F71.1 °F63 %29.79 in10.0 miENE (70°)8.1 mphScattered Clouds
12:03 PM86.0 °F75.2 °F70 %29.79 in10.0 miEast (80°)10.4 mphMostly Cloudy
12:08 PM86.0 °F75.2 °F70 %29.79 in10.0 miESE (110°)10.4 mphScattered Clouds
12:21 PM86.0 °F75.2 °F70 %29.79 in10.0 miEast (90°)9.2 mphMostly Cloudy
12:23 PM86.0 °F75.2 °F70 %29.79 in10.0 miEast (90°)10.4 mphScattered Clouds
12:55 PM86.0 °F77.0 °F74 %29.78 in10.0 miENE (70°)11.5 mphScattered Clouds
1:54 PM86.0 °F77.0 °F74 %29.77 in10.0 miESE (120°)10.4 mphMostly Cloudy
1:55 PM85.8 °F72.9 °F65 %29.77 in10.0 miESE (120°)10.4 mphMostly Cloudy
2:02 PM86.0 °F77.0 °F74 %29.77 in10.0 miEast (100°)9.2 mphScattered Clouds
2:32 PM86.0 °F73.4 °F66 %29.76 in10.0 miEast (100°)9.2 mphMostly Cloudy
2:37 PM84.2 °F73.4 °F70 %29.76 in10.0 miEast (100°)9.2 mphScattered Clouds
2:51 PM86.0 °F75.2 °F70 %29.76 in10.0 miEast (90°)9.2 mphMostly Cloudy
2:53 PM86.0 °F73.4 °F66 %29.76 in10.0 miEast (80°)9.2 mphMostly Cloudy
2:55 PM85.3 °F74.1 °F69 %29.76 in10.0 miEast (80°)10.4 mphScattered Clouds
3:04 PM86.0 °F75.2 °F70 %29.75 in10.0 miEast (100°)9.2 mphMostly Cloudy
3:05 PM86.0 °F75.2 °F70 %29.75 in10.0 miEast (100°)9.2 mphMostly Cloudy
3:18 PM84.2 °F73.4 °F70 %29.75 in10.0 miEast (90°)8.1 mphMostly Cloudy
3:31 PM84.2 °F73.4 °F70 %29.75 in10.0 miEast (100°)9.2 mphScattered Clouds
3:43 PM86.0 °F75.2 °F70 %29.75 in10.0 miEast (80°)8.1 mphMostly Cloudy
3:50 PM84.2 °F75.2 °F74 %29.75 in10.0 miENE (70°)8.1 mphScattered Clouds
3:55 PM83.7 °F75.0 °F75 %29.75 in10.0 miEast (90°)9.2 mphScattered Clouds
4:17 PM84.2 °F75.2 °F74 %29.74 in10.0 miENE (70°)9.2 mphMostly Cloudy
4:27 PM82.4 °F75.2 °F79 %29.74 in10.0 miEast (90°)8.1 mphScattered Clouds
4:31 PM82.4 °F75.2 °F79 %29.74 in10.0 miENE (70°)6.9 mphMostly Cloudy
4:51 PM84.2 °F75.2 °F74 %29.75 in10.0 miENE (60°)9.2 mphScattered Clouds
4:52 PM84.2 °F75.2 °F74 %29.75 in10.0 miENE (60°)8.1 mphMostly Cloudy
4:55 PM84.2 °F76.1 °F77 %29.75 in10.0 miEast (80°)8.1 mphMostly Cloudy
5:55 PM81.7 °F75.6 °F82 %29.76 in10.0 miENE (70°)5.8 mphMostly Cloudy
5:58 PM82.4 °F75.2 °F79 %29.76 in10.0 miEast (90°)5.8 mphScattered Clouds
6:48 PM82.4 °F75.2 °F79 %29.77 in10.0 miENE (70°)10.4 mphMostly Cloudy
6:55 PM81.5 °F75.7 °F83 %29.77 in10.0 miENE (60°)9.2 mphMostly Cloudy
6:59 PM80.6 °F75.2 °F84 %29.78 in10.0 miEast (90°)15.0 mphMostly Cloudy
7:11 PM80.6 °F73.4 °F79 %29.78 in9.0 miESE (120°)11.5 mphMostly Cloudy
7:20 PM78.8 °F73.4 °F83 %29.79 in10.0 miSE (130°)6.9 mphMostly Cloudy
7:55 PM79.5 °F73.9 °F83 %29.80 in10.0 miEast (80°)4.6 mphPartly Cloudy
8:13 PM80.6 °F73.4 °F79 %29.81 in10.0 miSE (140°)6.9 mphLight Drizzle
8:29 PM78.8 °F75.2 °F89 %29.81 in3.0 miEast (90°)9.2 mphRainLight Rain
8:31 PM78.8 °F75.2 °F89 %29.81 in2.5 miENE (60°)5.8 mphRainHeavy Rain
8:35 PM78.8 °F75.2 °F89 %29.81 in2.0 miCalmRainLight Rain
8:37 PM78.8 °F75.2 °F89 %29.81 in1.8 miSSW (210°)3.5 mphRainLight Rain
8:38 PM78.8 °F75.2 °F89 %29.81 in2.0 miSSW (210°)3.5 mphRainHeavy Rain
8:41 PM78.8 °F75.2 °F89 %29.81 in2.5 miCalmRainHeavy Rain
8:44 PM78.8 °F73.4 °F83 %29.81 in3.0 miCalmRainHeavy Rain
8:48 PM78.8 °F75.2 °F89 %29.81 in6.0 miCalmRainLight Rain
8:53 PM78.8 °F73.4 °F83 %29.81 in9.0 miCalmRainLight Rain
8:55 PM78.6 °F73.2 °F83 %29.81 in9.0 miCalm0.17 inRainLight Rain
9:03 PM78.8 °F73.4 °F83 %29.81 in10.0 miCalmLight Drizzle
9:05 PM78.8 °F73.4 °F83 %29.81 in10.0 miCalmScattered Clouds
9:55 PM79.7 °F75.6 °F87 %29.82 in10.0 miEast (100°)4.6 mph0.00 inPartly Cloudy
10:55 PM79.7 °F75.4 °F87 %29.81 in10.0 miESE (110°)4.6 mphClear
11:55 PM79.5 °F74.8 °F86 %29.81 in10.0 miEast (100°)5.8 mphClear
Hourly data recorded from PGUA, located miles away from Achang Bay, Guam







STORIES FROM OUR PARTNERS